Theta_e
305 303 303 303 303 305 305 305 305 305 304 306 307 310 310 310 311 311 311 310 310 311 312 312 312 312 311 311 311 310 306 305 299 297 298 299 302 302 302 301 300 299 298
304 303 302 302 303 304 304 305 305 304 305 306 307 309 310 310 310 311 311 311 310 311 312 312 311 312 311 310 310 309 307 303 300 298 297 298 299 300 300 300 298 297 297
303 302 302 302 302 303 304 304 304 304 305 306 306 307 310 310 310 310 311 310 311 310 311 312 310 311 310 310 309 308 307 303 300 298 296 295 295 298 298 297 297 296 295
303 302 302 302 302 302 303 304 304 304 304 305 306 307 309 310 310 311 311 310 310 311 311 311 310 310 310 309 308 307 305 303 300 297 295 294 294 295 297 296 294 293 293
303 302 302 302 302 302 303 303 303 304 304 305 306 306 308 309 310 310 310 310 310 310 311 311 310 310 310 309 308 306 304 301 299 297 295 293 292 292 294 293 291 291 290
303 302 302 302 301 302 302 302 303 303 304 305 305 306 306 308 309 310 310 310 310 310 310 310 311 311 311 309 309 308 308 305 299 297 296 294 293 292 294 294 291 288 289
303 302 302 301 301 301 301 301 302 303 303 304 305 306 306 307 309 310 310 310 310 310 310 309 309 310 310 308 307 306 306 305 306 304 301 297 295 297 296 293 292 290 290
302 302 302 301 301 301 301 301 301 302 303 303 305 306 306 306 307 309 310 310 310 310 310 309 309 309 309 308 306 304 303 302 303 303 303 299 302 300 296 294 291 291 291
302 302 302 301 301 300 300 301 301 301 302 303 304 305 305 306 306 306 308 309 310 310 310 309 309 308 308 308 308 305 303 302 302 302 302 303 302 301 301 297 293 292 288
302 302 302 301 301 300 300 300 300 300 301 303 304 305 304 304 304 305 306 308 309 309 309 309 309 308 308 308 307 305 303 302 302 301 301 302 302 301 301 301 299 293 292
302 302 301 300 300 300 300 299 300 300 301 302 303 303 303 303 303 303 305 306 308 308 308 309 309 308 308 307 307 307 307 305 302 302 301 301 300 299 298 297 298 299 297
300 300 300 299 299 299 299 299 299 299 300 300 300 300 301 302 302 301 304 305 306 308 309 310 310 309 308 307 307 307 306 305 303 300 300 300 299 299 298 297 296 295 296
297 297 298 298 298 298 298 298 298 298 298 298 299 300 301 301 302 303 304 304 306 307 308 309 309 308 308 308 307 306 306 304 303 301 300 300 302 302 298 295 294 293 294
295 295 295 296 297 297 297 297 297 296 297 298 299 300 301 301 302 303 304 304 305 307 308 308 308 308 308 308 306 303 304 304 303 303 303 302 301 298 296 296 293 292 291
293 293 294 294 295 294 295 295 296 296 297 298 299 300 300 300 300 300 302 304 305 306 305 306 305 305 306 306 304 304 303 301 301 303 303 301 299 297 296 295 293 291 291
291 292 292 292 292 293 293 293 294 295 296 297 297 298 297 297 297 298 300 302 303 302 302 302 302 301 301 301 299 299 299 299 301 301 301 301 299 297 295 293 292 292 291
292 291 291 291 291 291 291 291 290 291 292 293 293 294 294 294 295 297 298 300 301 301 300 299 300 300 300 299 299 299 300 299 297 297 297 297 296 295 293 292 292 290 290
291 291 291 290 290 290 290 290 290 290 290 290 290 291 291 291 292 294 296 297 298 297 298 297 297 298 297 298 298 297 297 296 296 297 296 296 296 295 293 291 291 290 290
291 290 291 291 291 291 291 291 291 290 290 290 289 290 290 290 291 292 294 295 295 295 295 295 295 295 296 297 297 297 296 296 295 295 295 295 295 294 293 292 292 292 291
288 287 287 287 286 286 287 287 287 287 287 287 287 287 288 289 290 290 291 291 291 291 292 292 293 293 294 294 295 295 295 294 294 293 293 293 293 292 292 292 292 292 291
285 285 286 286 286 285 285 285 285 285 285 285 284 284 284 286 287 287 287 288 288 288 289 289 290 291 291 292 292 293 293 293 292 292 292 292 292 291 291 291 291 291 291
284 284 284 284 284 284 284 284 284 284 284 284 283 283 283 284 284 284 285 285 285 286 286 287 287 288 288 289 289 290 290 291 291 291 291 291 291 290 290 290 290 290 290
284 283 282 282 282 282 282 282 283 282 282 282 282 281 283 283 283 283 283 283 283 283 284 285 285 286 286 286 286 287 287 288 288 289 289 290 290 290 290 289 289 289 289
282 282 281 281 280 280 280 280 280 280 280 280 279 279 279 280 280 280 280 281 281 281 282 282 282 283 283 284 284 285 286 286 287 287 287 288 288 289 289 289 289 289 288
279 279 279 278 278 277 277 276 276 276 276 276 276 276 276 276 276 276 276 277 277 277 278 278 279 280 281 282 282 283 283 284 285 285 286 286 287 287 287 288 288 288 288
278 278 277 276 276 275 275 275 274 274 275 274 274 274 274 274 273 274 274 274 275 275 275 276 276 277 278 278 279 281 282 283 283 283 283 284 285 285 286 287 287 287 287
Wind_Speed
24 22 20 18 17 16 16 14 13 11 11 10 8 7 5 4 3 5 6 7 9 11 12 14 18 20 21 19 12 15 24 20 21 17 23 25 26 25 22 20 17 18 19
26 24 21 19 18 18 16 15 14 12 11 11 9 8 6 6 4 5 5 8 10 12 13 14 16 19 22 19 18 20 23 26 29 28 26 25 26 24 22 20 18 18 18
27 25 23 21 20 18 17 16 15 13 12 11 10 9 7 6 7 6 6 9 10 11 12 14 15 21 23 22 22 26 27 30 24 23 19 23 23 23 22 20 18 18 17
27 25 25 23 21 19 18 17 15 14 13 12 11 10 10 8 8 7 8 9 10 11 10 10 17 20 22 21 22 25 29 35 28 25 21 19 24 22 22 23 19 17 16
28 27 25 23 20 19 19 18 16 15 14 12 11 11 11 9 10 9 7 9 9 11 12 11 14 15 17 18 21 26 31 30 29 27 22 19 22 26 26 23 23 18 15
30 29 25 24 22 21 20 19 18 16 15 13 12 11 11 10 10 11 11 10 9 9 11 12 13 14 15 17 16 19 29 40 34 24 21 22 23 24 27 29 28 21 6
30 28 26 25 24 23 21 19 19 18 16 15 13 11 11 11 11 11 11 11 10 9 10 12 14 14 15 18 18 19 22 30 37 42 39 35 30 36 36 34 30 23 10
29 28 27 26 25 23 22 21 19 18 17 15 13 12 10 11 11 12 12 13 12 11 11 13 15 17 19 20 21 23 24 28 31 34 35 32 32 34 34 28 27 20 8
29 29 28 27 25 24 23 21 19 18 17 15 14 13 11 9 9 12 12 12 14 13 12 12 14 16 17 20 22 24 24 24 24 27 25 27 27 23 28 27 27 24 8
29 29 28 26 25 25 23 22 19 18 16 15 14 12 11 10 9 12 15 13 12 13 14 12 13 14 16 20 23 25 27 29 28 27 21 20 20 20 22 26 30 31 13
27 26 25 25 24 23 22 21 20 18 17 16 15 14 11 9 9 11 14 14 13 12 14 14 14 15 16 19 22 25 28 26 27 27 25 22 20 20 24 27 31 32 32
25 25 24 23 22 22 22 21 19 18 17 15 14 11 9 8 9 10 11 13 12 12 14 16 16 16 18 20 22 23 25 23 27 28 27 25 25 26 27 28 29 30 28
27 25 24 24 23 21 21 20 19 17 17 15 13 11 9 9 9 9 9 12 13 14 14 15 16 14 16 18 21 23 24 23 25 29 30 30 29 27 26 24 26 27 28
29 27 26 25 23 19 18 18 18 16 15 14 12 9 7 6 7 7 9 11 13 12 12 13 11 13 14 16 20 24 25 25 26 30 30 29 27 25 25 26 27 28 26
29 27 25 23 23 20 17 15 15 13 13 14 11 8 8 7 5 5 6 7 8 9 10 9 10 12 15 17 19 22 26 25 25 25 26 26 25 26 27 27 27 27 27
30 25 23 25 23 22 21 18 11 11 11 11 10 8 7 6 4 2 2 2 3 3 4 5 7 10 11 14 17 20 22 26 26 26 26 27 27 28 29 28 28 29 28
32 26 24 24 23 22 21 21 18 11 8 9 9 7 5 3 3 3 2 2 1 2 2 0 1 1 5 6 10 14 17 20 22 22 24 25 25 25 27 28 29 28 27
29 27 24 21 21 20 19 19 20 17 16 14 9 7 5 3 3 2 3 4 5 5 4 3 3 3 2 1 1 5 9 11 13 16 19 22 23 24 25 25 26 25 23
32 28 26 23 21 21 20 19 18 17 15 14 11 9 8 8 8 6 3 3 5 6 5 5 2 2 1 2 2 3 4 6 8 11 14 17 19 21 25 26 26 27 26
29 27 25 23 21 20 19 20 18 16 13 11 8 5 4 5 11 10 7 7 7 6 4 3 2 2 2 2 2 3 3 4 5 7 9 11 14 17 21 23 24 25 27
30 27 26 24 22 20 19 18 17 15 14 12 11 8 8 8 6 7 8 9 9 7 6 5 5 4 4 4 4 4 4 4 4 5 6 8 9 13 16 18 20 22 24
31 28 25 24 20 19 18 16 16 15 13 13 10 8 7 9 8 7 5 3 5 5 5 5 5 6 6 6 6 6 6 5 5 5 6 6 8 10 12 14 16 18 20
29 27 25 23 22 21 20 18 17 15 14 12 9 8 8 7 5 5 3 3 2 3 3 5 6 7 6 6 6 7 7 7 6 6 7 8 8 9 10 12 13 15 17
31 30 29 26 23 22 21 19 17 14 12 10 8 6 4 3 2 0 1 3 3 4 5 6 6 6 7 8 10 9 9 9 9 8 8 9 10 10 11 12 12 13 16
32 31 28 26 24 23 21 19 17 15 13 11 9 7 5 4 3 2 1 3 4 4 4 6 7 9 9 10 11 11 11 13 14 15 14 13 13 13 12 13 14 14 14
31 29 27 24 23 21 19 19 17 15 14 11 9 7 5 6 4 4 3 4 4 5 5 5 6 7 8 9 13 15 15 15 15 15 16 15 15 16 16 16 16 15 15
Wind_Direction
174 175 173 175 177 178 178 177 178 185 176 176 178 171 156 152 134 115 119 123 128 131 139 147 152 166 148 153 146 151 146 148 123 119 125 129 129 132 131 130 136 125 123
176 175 175 176 179 181 178 181 182 182 179 181 183 176 172 153 167 136 133 133 135 137 151 159 163 159 161 167 154 160 158 147 142 136 139 135 137 145 142 140 134 132 135
176 178 175 178 183 183 178 182 185 180 181 184 182 182 174 171 160 152 149 139 138 144 157 169 171 167 160 165 166 165 165 155 146 144 138 146 143 151 145 143 143 143 143
179 180 179 182 185 183 181 186 184 185 184 187 181 185 181 183 162 180 161 150 148 152 159 178 171 171 167 168 168 168 166 159 158 147 141 143 153 159 160 152 146 151 151
181 183 186 186 185 183 184 186 185 186 189 189 186 191 189 192 174 182 176 165 160 156 162 170 172 175 177 181 179 173 171 161 159 155 154 159 165 166 168 168 158 160 160
184 186 186 185 183 185 186 185 186 188 189 191 193 196 196 197 190 194 192 184 173 174 174 183 187 191 192 197 203 202 193 181 170 166 172 172 180 178 177 177 167 160 174
186 186 186 187 186 187 186 186 188 191 191 194 196 198 203 206 205 207 199 194 199 211 198 200 196 199 200 195 199 210 208 207 203 191 186 188 183 192 189 184 184 177 178
183 184 186 187 187 187 186 188 189 191 193 193 196 201 204 211 211 211 211 213 217 215 226 220 215 207 205 200 198 199 202 201 202 199 207 199 203 202 200 194 187 183 172
180 185 186 190 187 188 187 187 190 190 192 195 197 198 204 212 218 217 217 220 223 222 225 238 231 219 216 212 206 203 203 206 209 209 215 218 213 219 210 201 194 188 176
182 188 190 190 192 191 191 188 190 192 191 191 189 192 202 205 220 224 219 223 225 221 231 232 233 232 221 222 214 205 200 204 203 204 206 211 220 227 230 227 215 191 185
185 185 185 188 190 193 190 188 187 184 185 188 191 192 196 212 230 242 223 222 230 236 239 237 238 232 226 224 224 219 217 209 206 209 206 205 207 214 218 218 223 220 213
177 177 178 181 180 184 187 182 183 183 184 187 189 191 206 218 232 240 230 224 231 244 248 245 247 246 236 227 228 229 233 223 207 206 208 211 214 219 223 221 224 220 226
166 166 169 168 168 174 178 176 174 177 175 174 182 195 208 221 226 227 229 226 229 243 254 256 249 254 243 236 230 233 233 227 209 204 213 219 224 229 225 221 222 223 229
158 160 160 158 154 163 172 177 174 169 169 174 182 193 198 202 208 218 228 232 237 246 250 251 246 247 241 236 232 227 234 231 219 215 220 226 227 221 221 221 217 218 223
150 151 148 154 146 150 153 159 163 167 173 174 173 173 164 161 163 190 208 226 235 250 248 242 242 237 234 229 225 227 228 227 225 227 225 227 225 222 222 221 219 219 216
132 139 146 141 147 149 144 134 143 159 162 159 144 147 134 142 153 164 188 202 217 212 228 243 250 251 243 229 225 222 225 227 229 229 229 230 228 225 222 220 219 221 219
136 144 141 146 148 150 149 141 128 125 135 120 116 135 139 158 133 125 144 149 134 162 141 156 263 297 271 257 243 241 243 244 240 238 237 234 232 232 225 220 219 221 223
138 137 139 145 147 148 145 146 138 133 122 112 112 112 95 72 217 149 111 112 113 109 126 130 72 87 87 81 233 250 256 255 251 246 240 239 239 237 231 225 224 223 224
136 138 144 145 145 142 140 137 137 135 126 122 113 92 86 84 81 113 144 140 98 93 98 99 72 7 336 288 258 243 247 252 256 255 250 244 241 237 238 240 238 237 232
134 138 141 139 137 135 135 129 126 127 129 124 112 94 113 101 81 78 81 79 78 73 64 67 64 13 353 330 305 285 271 266 264 261 259 257 253 248 247 249 247 238 234
132 133 133 131 129 128 129 127 128 127 126 121 109 90 79 98 88 69 72 69 66 59 44 23 7 357 352 336 330 315 298 290 285 279 276 274 268 261 261 261 260 257 249
131 130 127 122 125 126 125 127 128 127 127 124 118 103 96 96 99 94 91 93 47 34 29 12 7 5 3 356 342 330 320 314 306 294 287 282 280 277 277 274 272 270 265
137 137 132 133 133 137 137 136 134 135 134 133 133 126 118 119 123 125 124 110 44 359 348 317 308 309 321 328 325 330 330 328 321 309 301 293 285 283 282 281 281 277 271
139 136 135 136 138 139 139 137 137 138 134 132 132 129 133 139 145 177 243 261 261 253 255 268 275 284 291 297 293 301 298 298 293 292 295 298 295 289 284 284 284 284 280
138 134 135 139 138 135 132 129 127 125 124 120 119 116 110 100 95 76 351 319 314 308 294 279 273 274 276 278 276 273 275 283 283 282 291 287 285 287 288 288 285 284 283
131 131 132 135 133 133 131 129 126 125 121 118 114 105 97 87 62 50 15 4 356 346 338 323 310 298 288 281 274 274 271 270 275 275 279 282 286 285 282 283 288 284 283